| time (UTC) | temp F | wind direction | speed MPH | gust MPH | rain 1hr in | rain 24hr in | rain mn in | humidity % | barometer mb |
| 20260508031016 | 44 | 0.0 | 2.0 | 0.00 | 0.08 | 0.08 | 51 | 1007.8 | |
| 20260508030036 | 44 | 270 | 1.0 | 4.0 | 0.00 | 0.08 | 0.08 | 50 | 1007.9 |
| 20260508025016 | 44 | 0.0 | 0.0 | 0.00 | 0.08 | 0.08 | 55 | 1007.8 | |
| 20260508024016 | 45 | 0.0 | 0.0 | 0.00 | 0.08 | 0.08 | 53 | 1007.8 | |
| 20260508023017 | 45 | 0.0 | 0.0 | 0.00 | 0.08 | 0.08 | 54 | 1007.8 | |
| 20260508022017 | 45 | 0.0 | 0.0 | 0.00 | 0.08 | 0.08 | 53 | 1007.8 | |
| 20260508021016 | 45 | 0.0 | 0.0 | 0.00 | 0.08 | 0.08 | 48 | 1007.7 | |
| 20260508020016 | 46 | 0.0 | 0.0 | 0.00 | 0.08 | 0.08 | 48 | 1007.7 | |
| 20260508015016 | 46 | 0.0 | 0.0 | 0.00 | 0.08 | 0.08 | 47 | 1007.7 | |
| 20260508014016 | 46 | 0.0 | 0.0 | 0.00 | 0.08 | 0.08 | 46 | 1007.7 | |
| 20260508013017 | 46 | 0.0 | 0.0 | 0.00 | 0.08 | 0.08 | 48 | 1007.6 | |
| 20260508012017 | 46 | 0.0 | 0.0 | 0.00 | 0.08 | 0.08 | 48 | 1007.6 | |
| 20260508011016 | 46 | 0.0 | 0.0 | 0.00 | 0.08 | 0.08 | 45 | 1007.5 | |
| 20260508010016 | 47 | 0.0 | 1.0 | 0.00 | 0.08 | 0.08 | 44 | 1007.4 | |
| 20260508005016 | 47 | 0.0 | 2.0 | 0.00 | 0.08 | 0.08 | 44 | 1007.4 | |
| 20260508004016 | 47 | 338 | 1.0 | 2.0 | 0.00 | 0.08 | 0.08 | 44 | 1007.3 |
| 20260508003016 | 47 | 293 | 1.0 | 3.0 | 0.00 | 0.08 | 0.08 | 44 | 1007.2 |
| 20260508002016 | 47 | 0.0 | 0.0 | 0.00 | 0.08 | 0.08 | 45 | 1007.2 | |
| 20260508001036 | 48 | 0.0 | 3.0 | 0.00 | 0.08 | 0.08 | 43 | 1007.1 | |
| 20260508000016 | 48 | 0.0 | 1.0 | 0.00 | 0.08 | 0.08 | 43 | 1006.9 | |
| 20260507235017 | 48 | 270 | 1.0 | 3.0 | 0.00 | 0.08 | 0.08 | 43 | 1006.9 |
| 20260507234016 | 48 | 293 | 1.0 | 3.0 | 0.00 | 0.08 | 0.08 | 42 | 1006.8 |
| 20260507233017 | 48 | 0.0 | 1.0 | 0.00 | 0.08 | 0.08 | 42 | 1006.8 | |
| 20260507232016 | 49 | 315 | 1.0 | 4.0 | 0.00 | 0.08 | 0.08 | 41 | 1006.7 |
| 20260507231037 | 49 | 315 | 1.0 | 4.0 | 0.00 | 0.08 | 0.08 | 42 | 1006.7 |
| 20260507230017 | 49 | 270 | 1.0 | 3.0 | 0.00 | 0.08 | 0.08 | 42 | 1006.6 |
| 20260507225016 | 49 | 293 | 1.0 | 3.0 | 0.00 | 0.08 | 0.08 | 42 | 1006.6 |
| 20260507224057 | 49 | 315 | 1.0 | 5.0 | 0.00 | 0.08 | 0.08 | 43 | 1006.6 |
| 20260507223016 | 49 | 0.0 | 2.0 | 0.00 | 0.08 | 0.08 | 43 | 1006.5 | |
| 20260507222016 | 50 | 0.0 | 3.0 | 0.00 | 0.08 | 0.08 | 41 | 1006.5 | |
| 20260507221036 | 50 | 293 | 1.0 | 3.0 | 0.00 | 0.08 | 0.08 | 41 | 1006.5 |
| 20260507220016 | 50 | 315 | 2.0 | 8.0 | 0.00 | 0.08 | 0.08 | 41 | 1006.5 |
| 20260507215016 | 50 | 270 | 1.0 | 2.0 | 0.00 | 0.08 | 0.08 | 42 | 1006.5 |
| 20260507214016 | 51 | 0.0 | 3.0 | 0.00 | 0.08 | 0.08 | 43 | 1006.4 | |
| 20260507213016 | 50 | 0.0 | 0.0 | 0.00 | 0.08 | 0.08 | 44 | 1006.4 | |
| 20260507212016 | 51 | 0.0 | 2.0 | 0.00 | 0.08 | 0.08 | 43 | 1006.4 | |
| 20260507211016 | 51 | 0.0 | 1.0 | 0.00 | 0.08 | 0.08 | 42 | 1006.3 | |
| 20260507210017 | 52 | 0.0 | 2.0 | 0.00 | 0.08 | 0.08 | 39 | 1006.3 | |
| 20260507205016 | 51 | 315 | 1.0 | 4.0 | 0.00 | 0.08 | 0.08 | 41 | 1006.4 |
| 20260507204017 | 50 | 338 | 1.0 | 8.0 | 0.00 | 0.08 | 0.08 | 41 | 1006.4 |
| 20260507203017 | 50 | 315 | 2.0 | 5.0 | 0.00 | 0.08 | 0.08 | 44 | 1006.5 |
| 20260507202016 | 50 | 0.0 | 0.0 | 0.00 | 0.08 | 0.08 | 49 | 1006.5 | |
| 20260507201016 | 49 | 0.0 | 0.0 | 0.00 | 0.08 | 0.08 | 46 | 1006.4 | |
| 20260507200016 | 49 | 0.0 | 0.0 | 0.00 | 0.08 | 0.08 | 45 | 1006.5 | |
| 20260507195016 | 49 | 0.0 | 2.0 | 0.00 | 0.08 | 0.08 | 47 | 1006.6 | |
| 20260507194016 | 49 | 338 | 1.0 | 4.0 | 0.00 | 0.08 | 0.08 | 45 | 1006.7 |
| 20260507193016 | 48 | 0 | 1.0 | 4.0 | 0.00 | 0.08 | 0.08 | 48 | 1006.8 |
| 20260507192016 | 48 | 293 | 2.0 | 4.0 | 0.00 | 0.08 | 0.08 | 53 | 1006.9 |
| 20260507191036 | 47 | 338 | 1.0 | 8.0 | 0.00 | 0.08 | 0.08 | 53 | 1006.9 |
| 20260507190017 | 47 | 338 | 2.0 | 6.0 | 0.00 | 0.08 | 0.08 | 54 | 1007.1 |
| 20260507185016 | 47 | 0.0 | 1.0 | 0.00 | 0.08 | 0.08 | 54 | 1007.1 | |
| 20260507184017 | 46 | 0.0 | 2.0 | 0.00 | 0.08 | 0.08 | 58 | 1007.2 | |
| 20260507183037 | 46 | 338 | 2.0 | 8.0 | 0.00 | 0.08 | 0.08 | 54 | 1007.3 |
| 20260507182017 | 45 | 0.0 | 0.0 | 0.00 | 0.08 | 0.08 | 62 | 1007.2 | |
| 20260507181017 | 45 | 338 | 3.0 | 10.0 | 0.00 | 0.08 | 0.08 | 61 | 1007.4 |
| 20260507180016 | 44 | 225 | 1.0 | 4.0 | 0.00 | 0.08 | 0.08 | 69 | 1007.5 |
| 20260507175016 | 44 | 0.0 | 1.0 | 0.00 | 0.08 | 0.08 | 71 | 1007.3 | |
| 20260507174017 | 43 | 68 | 2.0 | 3.0 | 0.00 | 0.08 | 0.08 | 71 | 1007.2 |
| 20260507173017 | 42 | 68 | 3.0 | 5.0 | 0.00 | 0.08 | 0.08 | 72 | 1007.3 |
| 20260507172036 | 43 | 68 | 1.0 | 2.0 | 0.00 | 0.08 | 0.08 | 73 | 1007.6 |
| 20260507171017 | 43 | 45 | 1.0 | 4.0 | 0.00 | 0.08 | 0.08 | 70 | 1007.5 |
| 20260507170016 | 43 | 0.0 | 1.0 | 0.00 | 0.08 | 0.08 | 74 | 1007.7 | |
| 20260507165016 | 43 | 270 | 1.0 | 3.0 | 0.01 | 0.08 | 0.08 | 75 | 1007.8 |
| 20260507164016 | 42 | 0.0 | 4.0 | 0.02 | 0.08 | 0.08 | 78 | 1007.8 | |
| 20260507163016 | 41 | 315 | 1.0 | 6.0 | 0.02 | 0.08 | 0.08 | 78 | 1008.0 |
| 20260507162016 | 40 | 315 | 1.0 | 5.0 | 0.04 | 0.08 | 0.08 | 83 | 1008.1 |
| 20260507161017 | 39 | 315 | 1.0 | 4.0 | 0.06 | 0.08 | 0.08 | 84 | 1008.1 |
| 20260507160017 | 38 | 0.0 | 2.0 | 0.07 | 0.08 | 0.08 | 82 | 1008.2 | |
| 20260507155037 | 38 | 315 | 3.0 | 9.0 | 0.07 | 0.07 | 0.07 | 83 | 1008.2 |
| 20260507154037 | 38 | 293 | 1.0 | 3.0 | 0.06 | 0.06 | 0.06 | 83 | 1008.3 |
| 20260507153017 | 37 | 338 | 1.0 | 4.0 | 0.06 | 0.06 | 0.06 | 78 | 1008.4 |
| 20260507152017 | 38 | 315 | 2.0 | 5.0 | 0.04 | 0.04 | 0.04 | 77 | 1008.3 |
| 20260507151016 | 39 | 270 | 1.0 | 3.0 | 0.02 | 0.02 | 0.02 | 76 | 1008.3 |
| 20260507150016 | 41 | 270 | 3.0 | 6.0 | 0.01 | 0.01 | 0.01 | 70 | 1008.2 |
| 20260507145016 | 42 | 315 | 3.0 | 11.0 | 0.00 | 0.00 | 0.00 | 68 | 1007.9 |
| 20260507144017 | 42 | 315 | 2.0 | 10.0 | 0.00 | 0.00 | 0.00 | 67 | 1007.8 |
| 20260507143016 | 42 | 270 | 1.0 | 5.0 | 0.00 | 0.00 | 0.00 | 68 | 1007.8 |
| 20260507142016 | 41 | 248 | 1.0 | 4.0 | 0.00 | 0.00 | 0.00 | 70 | 1007.7 |
| 20260507141016 | 41 | 315 | 2.0 | 6.0 | 0.00 | 0.00 | 0.00 | 69 | 1007.7 |
| 20260507140017 | 41 | 270 | 1.0 | 3.0 | 0.00 | 0.00 | 0.00 | 71 | 1007.6 |
| 20260507135017 | 40 | 338 | 2.0 | 6.0 | 0.00 | 0.00 | 0.00 | 72 | 1007.5 |
| 20260507134016 | 40 | 338 | 1.0 | 4.0 | 0.00 | 0.00 | 0.00 | 73 | 1007.5 |
| 20260507133016 | 39 | 315 | 1.0 | 5.0 | 0.00 | 0.00 | 0.00 | 72 | 1007.5 |
| 20260507132016 | 39 | 338 | 1.0 | 4.0 | 0.00 | 0.00 | 0.00 | 72 | 1007.5 |
| 20260507131016 | 40 | 338 | 3.0 | 6.0 | 0.00 | 0.00 | 0.00 | 69 | 1007.4 |
| 20260507130017 | 41 | 338 | 1.0 | 5.0 | 0.00 | 0.00 | 0.00 | 67 | 1007.4 |
| 20260507125016 | 41 | 293 | 3.0 | 8.0 | 0.00 | 0.00 | 0.00 | 64 | 1007.2 |
| 20260507124036 | 42 | 338 | 1.0 | 4.0 | 0.00 | 0.00 | 0.00 | 62 | 1007.0 |
| 20260507123017 | 43 | 270 | 2.0 | 4.0 | 0.00 | 0.00 | 0.00 | 58 | 1006.8 |
| 20260507122016 | 43 | 0.0 | 2.0 | 0.00 | 0.00 | 0.00 | 56 | 1006.7 | |
| 20260507121016 | 43 | 315 | 1.0 | 5.0 | 0.00 | 0.00 | 0.00 | 55 | 1006.7 |
| 20260507120016 | 43 | 270 | 2.0 | 9.0 | 0.00 | 0.00 | 0.00 | 54 | 1006.6 |
| 20260507115017 | 43 | 315 | 2.0 | 6.0 | 0.00 | 0.00 | 0.00 | 54 | 1006.6 |
| 20260507114016 | 43 | 0.0 | 2.0 | 0.00 | 0.00 | 0.00 | 54 | 1006.5 | |
| 20260507113016 | 44 | 293 | 2.0 | 8.0 | 0.00 | 0.00 | 0.00 | 53 | 1006.4 |
| 20260507112056 | 43 | 248 | 2.0 | 4.0 | 0.00 | 0.00 | 0.00 | 53 | 1006.3 |
| 20260507111017 | 43 | 315 | 1.0 | 3.0 | 0.00 | 0.00 | 0.00 | 54 | 1006.2 |
| 20260507110057 | 43 | 293 | 2.0 | 5.0 | 0.00 | 0.00 | 0.00 | 54 | 1006.2 |
| 20260507105016 | 43 | 270 | 1.0 | 3.0 | 0.00 | 0.00 | 0.00 | 55 | 1006.0 |
| 20260507104016 | 43 | 270 | 1.0 | 3.0 | 0.00 | 0.00 | 0.00 | 55 | 1005.9 |
| 20260507103037 | 43 | 293 | 1.0 | 4.0 | 0.00 | 0.00 | 0.00 | 55 | 1005.9 |
| 20260507102057 | 43 | 270 | 2.0 | 3.0 | 0.00 | 0.00 | 0.00 | 56 | 1005.7 |
| 20260507101016 | 43 | 270 | 1.0 | 3.0 | 0.00 | 0.00 | 0.00 | 56 | 1005.7 |
| 20260507100016 | 43 | 270 | 1.0 | 3.0 | 0.00 | 0.00 | 0.00 | 56 | 1005.5 |
| 20260507095016 | 43 | 270 | 1.0 | 3.0 | 0.00 | 0.00 | 0.00 | 56 | 1005.3 |
| 20260507094016 | 44 | 270 | 1.0 | 2.0 | 0.00 | 0.00 | 0.00 | 55 | 1005.4 |
| 20260507093016 | 44 | 270 | 2.0 | 4.0 | 0.00 | 0.00 | 0.00 | 55 | 1005.3 |
| 20260507092016 | 44 | 270 | 2.0 | 3.0 | 0.00 | 0.00 | 0.00 | 55 | 1005.3 |
| 20260507091037 | 44 | 270 | 1.0 | 3.0 | 0.00 | 0.00 | 0.00 | 54 | 1005.3 |
| 20260507090037 | 44 | 270 | 1.0 | 3.0 | 0.00 | 0.00 | 0.00 | 54 | 1005.3 |
| 20260507085016 | 45 | 270 | 2.0 | 3.0 | 0.00 | 0.00 | 0.00 | 53 | 1005.3 |
| 20260507084016 | 45 | 270 | 1.0 | 3.0 | 0.00 | 0.00 | 0.00 | 53 | 1005.4 |
| 20260507083016 | 45 | 270 | 1.0 | 3.0 | 0.00 | 0.00 | 0.00 | 53 | 1005.4 |
| 20260507082017 | 45 | 270 | 1.0 | 2.0 | 0.00 | 0.00 | 0.00 | 51 | 1005.3 |
| 20260507081016 | 46 | 270 | 1.0 | 3.0 | 0.00 | 0.00 | 0.00 | 50 | 1005.5 |
| 20260507080017 | 46 | 270 | 1.0 | 3.0 | 0.00 | 0.00 | 0.00 | 50 | 1005.6 |
| 20260507075017 | 46 | 0.0 | 2.0 | 0.00 | 0.00 | 0.00 | 50 | 1005.7 | |
| 20260507074016 | 46 | 248 | 1.0 | 2.0 | 0.00 | 0.00 | 0.00 | 49 | 1005.7 |
| 20260507073016 | 46 | 293 | 1.0 | 3.0 | 0.00 | 0.00 | 0.00 | 50 | 1005.7 |
| 20260507072016 | 46 | 270 | 1.0 | 3.0 | 0.00 | 0.00 | 0.00 | 48 | 1005.8 |
| 20260507071037 | 47 | 0.0 | 2.0 | 0.00 | 0.00 | 0.00 | 50 | 1005.7 | |
| 20260507070017 | 47 | 248 | 1.0 | 3.0 | 0.00 | 0.00 | 0.00 | 49 | 1005.8 |
| 20260507065037 | 47 | 270 | 1.0 | 3.0 | 0.00 | 0.00 | 0.00 | 48 | 1005.8 |
| 20260507064016 | 47 | 293 | 1.0 | 3.0 | 0.00 | 0.00 | 0.00 | 48 | 1005.9 |
| 20260507063017 | 48 | 270 | 1.0 | 3.0 | 0.00 | 0.00 | 0.00 | 48 | 1006.0 |
| 20260507062017 | 48 | 270 | 1.0 | 4.0 | 0.00 | 0.00 | 0.00 | 47 | 1006.0 |
| 20260507061017 | 48 | 315 | 1.0 | 3.0 | 0.00 | 0.00 | 0.00 | 48 | 1006.1 |
| 20260507060017 | 48 | 270 | 1.0 | 3.0 | 0.00 | 0.00 | 0.00 | 47 | 1006.0 |
| 20260507055037 | 48 | 270 | 1.0 | 3.0 | 0.00 | 0.00 | 0.00 | 48 | 1006.1 |
| 20260507054016 | 48 | 0.0 | 1.0 | 0.00 | 0.00 | 0.00 | 50 | 1006.1 | |
| 20260507053017 | 48 | 0.0 | 0.0 | 0.00 | 0.00 | 0.00 | 52 | 1006.1 | |
| 20260507052016 | 48 | 0.0 | 0.0 | 0.00 | 0.00 | 0.00 | 50 | 1006.1 | |
| 20260507051017 | 49 | 0.0 | 0.0 | 0.00 | 0.00 | 0.00 | 49 | 1006.2 | |
| 20260507050057 | 49 | 0.0 | 0.0 | 0.00 | 0.00 | 0.00 | 51 | 1006.2 | |
| 20260507045016 | 49 | 0.0 | 0.0 | 0.00 | 0.00 | 0.00 | 52 | 1006.3 | |
| 20260507044037 | 49 | 0.0 | 0.0 | 0.00 | 0.00 | 0.00 | 54 | 1006.4 | |
| 20260507043036 | 49 | 0.0 | 0.0 | 0.00 | 0.00 | 0.00 | 54 | 1006.5 | |
| 20260507042017 | 49 | 0.0 | 0.0 | 0.00 | 0.00 | 0.00 | 52 | 1006.6 | |
| 20260507041016 | 49 | 0.0 | 0.0 | 0.00 | 0.00 | 0.00 | 53 | 1006.6 | |
| 20260507040016 | 48 | 0.0 | 0.0 | 0.00 | 0.00 | 0.00 | 52 | 1006.6 | |
| 20260507035037 | 49 | 0.0 | 0.0 | 0.00 | 0.00 | 0.00 | 56 | 1006.8 | |
| 20260507034017 | 49 | 0.0 | 0.0 | 0.00 | 0.00 | 0.00 | 52 | 1006.7 | |
| 20260507033017 | 49 | 0.0 | 0.0 | 0.00 | 0.00 | 0.00 | 54 | 1006.7 | |
| 20260507032017 | 49 | 0.0 | 0.0 | 0.00 | 0.00 | 0.00 | 54 | 1006.8 |